Location: Hradec Kralove
(50.2170°N, 15.8330°E)
Time: 10:24:04
(UTC+01:00)

A-11 Canister half - Visible Passes

Search period start: 28 January 2023 00:00
Search period end: 07 February 2023 00:00
Orbit: 1514 x 1685 km, 47.2° (Epoch: 26 January)

Date Brightness Start Highest point End Pass type
(mag) Time Alt. Az. Time Alt. Az. Time Alt. Az.
28 Jan 9.7 17:52:40 10° W 18:01:32 52° SSW 18:10:21 10° SE visible
28 Jan 10.8 19:58:27 10° W 20:04:44 21° SW 20:11:02 10° S visible
29 Jan 9.7 17:29:43 10° W 17:38:40 53° SSW 17:47:31 10° SE visible
29 Jan 10.8 19:35:22 10° W 19:41:56 22° SW 19:48:30 10° S visible
30 Jan 9.7 17:06:46 10° W 17:15:47 55° SSW 17:24:41 10° SE visible
30 Jan 10.8 19:12:18 10° W 19:19:07 24° SW 19:25:56 10° S visible
31 Jan 10.8 18:49:15 10° W 18:56:18 25° SW 19:03:20 10° S visible
01 Feb 10.8 18:26:13 10° W 18:33:29 27° SW 18:40:43 10° S visible
02 Feb 10.8 18:03:12 10° W 18:10:39 28° SW 18:18:05 10° S visible
03 Feb 10.8 17:40:11 10° W 17:47:50 30° SW 17:55:25 10° SSE visible
04 Feb 10.8 17:17:10 10° W 17:25:00 32° SW 17:32:45 10° SSE visible
